Mojave, CA

7:31 AM PDT on June 22, 2017 (GMT -0700)
Mojave

Weather History for KMHV - January, 2014

Change the Weather History Date:

Wednesday, January 8, 2014

  Actual Average Record
Temperature  
Mean Temperature 55 °F -  
Max Temperature 64 °F 55 °F 79 °F (1969)
Min Temperature 46 °F 30 °F 16 °F (1973)
Degree Days  
Heating Degree Days 10    
Growing Degree Days 5 (Base 50)    
Moisture  
Dew Point 23 °F    
Average Humidity 31    
Maximum Humidity 47    
Minimum Humidity 19    
Precipitation  
Precipitation 0.00 in - - ()
Sea Level Pressure  
Sea Level Pressure 30.08 in    
Wind  
Wind Speed 17 mph (West)    
Max Wind Speed 34 mph    
Max Gust Speed 46 mph    
Visibility 10 miles    
Events      
Averages and records for this station are not official NWS values.
T = Trace of Precipitation, MM = Missing Value Source: NWS Daily Summary

Daily Weather History Graph

Daily Weather History Graph

Search for Another Location

Airport or City:

Trip Planner

Search our weather history database for the weather conditions in past years. The results will help you decide how hot, cold, wet, or windy it might be!

Date:

Astronomy

Jan. 08, 2014 Rise Set
Actual Time 7:01 AM PST 4:57 PM PST
Civil Twilight 6:33 AM PST 5:25 PM PST
Nautical Twilight 6:02 AM PST 5:56 PM PST
Astronomical Twilight 5:31 AM PST 6:27 PM PST
Moon 11:46 AM PST (1/8) 12:19 AM PST (1/8)
Length of Visible Light 10h 52m
Length of Day
9h 56m
First Quarter, 57% of the Moon is Illuminated
Jan 8
First Quarter
Jan 15
Full
Jan 23
Last Quarter
Jan 30
New
Feb 6
First Quarter

Hourly Weather History & Observations

Time (PST) Temp. Windchill Dew Point Humidity Pressure Visibility Wind Dir Wind Speed Gust Speed Precip Events Conditions
12:15 AM 53.6 °F - 15.8 °F 22% 30.08 in 10.0 mi West 17.3 mph - N/A   Clear
12:35 AM 55.4 °F - 15.8 °F 21% 30.06 in 10.0 mi WNW 26.5 mph 31.1 mph N/A   Clear
12:55 AM 55.4 °F - 15.8 °F 21% 30.03 in 10.0 mi West 34.5 mph 46.0 mph N/A   Clear
1:15 AM 53.6 °F - 14.0 °F 21% 30.08 in 10.0 mi WSW 31.1 mph 35.7 mph N/A   Clear
1:35 AM 53.6 °F - 14.0 °F 21% 30.10 in 10.0 mi SW 21.9 mph 29.9 mph N/A   Clear
1:55 AM 53.6 °F - 14.0 °F 21% 30.10 in 10.0 mi SW 20.7 mph 27.6 mph N/A   Clear
2:15 AM 51.8 °F - 15.8 °F 24% 30.09 in 10.0 mi WSW 24.2 mph 32.2 mph N/A   Clear
2:35 AM 51.8 °F - 17.6 °F 26% 30.07 in 10.0 mi WSW 25.3 mph 34.5 mph N/A   Clear
2:55 AM 51.8 °F - 17.6 °F 26% 30.08 in 10.0 mi WSW 24.2 mph 34.5 mph N/A   Clear
3:15 AM 51.8 °F - 19.4 °F 28% 30.07 in 10.0 mi West 21.9 mph 29.9 mph N/A   Clear
3:35 AM 51.8 °F - 21.2 °F 30% 30.06 in 10.0 mi WSW 24.2 mph 33.4 mph N/A   Clear
3:55 AM 51.8 °F - 21.2 °F 30% 30.06 in 10.0 mi West 26.5 mph 33.4 mph N/A   Clear
4:15 AM 50.0 °F - 21.2 °F 32% 30.07 in 10.0 mi West 20.7 mph 32.2 mph N/A   Clear
4:35 AM 50.0 °F - 21.2 °F 32% 30.07 in 10.0 mi West 23.0 mph 32.2 mph N/A   Clear
4:55 AM 50.0 °F - 21.2 °F 32% 30.06 in 10.0 mi West 24.2 mph 33.4 mph N/A   Clear
5:15 AM 51.8 °F - 21.2 °F 30% 30.07 in 10.0 mi West 17.3 mph 26.5 mph N/A   Clear
5:35 AM 50.0 °F - 21.2 °F 32% 30.08 in 10.0 mi WSW 17.3 mph 24.2 mph N/A   Clear
5:55 AM 50.0 °F - 21.2 °F 32% 30.09 in 10.0 mi SW 16.1 mph 26.5 mph N/A   Clear
6:15 AM 50.0 °F - 21.2 °F 32% 30.07 in 10.0 mi WSW 16.1 mph 21.9 mph N/A   Clear
6:35 AM 50.0 °F - 19.4 °F 30% 30.07 in 10.0 mi West 20.7 mph 29.9 mph N/A   Clear
6:55 AM 50.0 °F - 19.4 °F 30% 30.06 in 10.0 mi West 20.7 mph 29.9 mph N/A   Clear
7:15 AM 50.0 °F - 19.4 °F 30% 30.06 in 10.0 mi West 21.9 mph 32.2 mph N/A   Clear
7:35 AM 50.0 °F - 17.6 °F 28% 30.07 in 10.0 mi West 27.6 mph 34.5 mph N/A   Clear
7:55 AM 50.0 °F - 19.4 °F 30% 30.09 in 9.0 mi North 10.4 mph 27.6 mph N/A   Clear
8:15 AM 46.4 °F - 17.6 °F 32% 30.12 in 10.0 mi Calm Calm - N/A   Clear
8:35 AM 46.4 °F - 17.6 °F 32% 30.12 in 10.0 mi Calm Calm - N/A   Clear
8:55 AM 46.4 °F 42.9 °F 17.6 °F 32% 30.13 in 10.0 mi East 6.9 mph - N/A   Clear
9:15 AM 48.2 °F - 17.6 °F 30% 30.15 in 10.0 mi Calm Calm - N/A   Clear
9:35 AM 50.0 °F - 17.6 °F 28% 30.15 in 10.0 mi ESE 10.4 mph - N/A   Clear
9:55 AM 51.8 °F - 19.4 °F 28% 30.16 in 10.0 mi ESE 9.2 mph - N/A   Clear
10:15 AM 53.6 °F - 19.4 °F 26% 30.16 in 10.0 mi East 9.2 mph - N/A   Clear
10:35 AM 53.6 °F - 19.4 °F 26% 30.16 in 10.0 mi East 8.1 mph - N/A   Clear
10:55 AM 55.4 °F - 19.4 °F 25% 30.15 in 10.0 mi East 4.6 mph - N/A   Clear
11:15 AM 55.4 °F - 19.4 °F 25% 30.13 in 10.0 mi Calm Calm - N/A   Clear
11:35 AM 55.4 °F - 19.4 °F 25% 30.12 in 10.0 mi ESE 4.6 mph - N/A   Clear
11:55 AM 57.2 °F - 19.4 °F 23% 30.10 in 10.0 mi East 4.6 mph - N/A   Clear
12:15 PM 57.2 °F - 17.6 °F 21% 30.09 in 10.0 mi East 8.1 mph - N/A   Clear
12:35 PM 59.0 °F - 19.4 °F 22% 30.08 in 10.0 mi Calm Calm - N/A   Clear
12:55 PM 59.0 °F - 19.4 °F 22% 30.07 in 10.0 mi Calm Calm - N/A   Clear
1:15 PM 59.0 °F - 19.4 °F 22% 30.06 in 10.0 mi Calm Calm - N/A   Clear
1:35 PM 60.8 °F - 19.4 °F 20% 30.05 in 10.0 mi ESE 5.8 mph - N/A   Clear
1:55 PM 62.6 °F - 19.4 °F 19% 30.05 in 10.0 mi East 6.9 mph - N/A   Clear
2:15 PM 62.6 °F - 19.4 °F 19% 30.05 in 10.0 mi ENE 8.1 mph - N/A   Clear
2:35 PM 64.4 °F - 21.2 °F 19% 30.04 in 10.0 mi NE 5.8 mph - N/A   Clear
2:55 PM 64.4 °F - 24.8 °F 22% 30.05 in 10.0 mi West 13.8 mph - N/A   Clear
3:15 PM 64.4 °F - 24.8 °F 22% 30.05 in 10.0 mi West 13.8 mph 20.7 mph N/A   Clear
3:35 PM 64.4 °F - 23.0 °F 21% 30.05 in 10.0 mi WNW 5.8 mph 21.9 mph N/A   Clear
3:55 PM 62.6 °F - 26.6 °F 26% 30.05 in 10.0 mi West 18.4 mph - N/A   Clear
4:15 PM 59.0 °F - 28.4 °F 31% 30.05 in 10.0 mi West 17.3 mph - N/A   Clear
4:35 PM 57.2 °F - 30.2 °F 36% 30.05 in 9.0 mi West 19.6 mph 29.9 mph N/A   Clear
4:55 PM 55.4 °F - 30.2 °F 38% 30.05 in 9.0 mi West 21.9 mph 25.3 mph N/A   Clear
5:15 PM 55.4 °F - 30.2 °F 38% 30.05 in 9.0 mi West 21.9 mph 27.6 mph N/A   Clear
5:35 PM 53.6 °F - 32.0 °F 44% 30.05 in 10.0 mi West 20.7 mph - N/A   Clear
5:55 PM 53.6 °F - 32.0 °F 44% 30.05 in 10.0 mi West 16.1 mph 24.2 mph N/A   Clear
6:15 PM 53.6 °F - 33.8 °F 47% 30.06 in 10.0 mi West 18.4 mph 24.2 mph N/A   Clear
6:35 PM 53.6 °F - 32.0 °F 44% 30.06 in 10.0 mi West 20.7 mph - N/A   Clear
6:55 PM 51.8 °F - 32.0 °F 47% 30.06 in 10.0 mi West 17.3 mph 21.9 mph N/A   Clear
7:15 PM 51.8 °F - 32.0 °F 47% 30.06 in 10.0 mi West 17.3 mph - N/A   Clear
7:35 PM 51.8 °F - 28.4 °F 41% 30.06 in 10.0 mi West 9.2 mph - N/A   Clear
7:55 PM 51.8 °F - 32.0 °F 47% 30.05 in 10.0 mi West 21.9 mph 31.1 mph N/A   Clear
8:15 PM 51.8 °F - 32.0 °F 47% 30.05 in 10.0 mi West 21.9 mph 27.6 mph N/A   Clear
8:35 PM 53.6 °F - 30.2 °F 41% 30.06 in 10.0 mi NW 12.7 mph - N/A   Clear
8:55 PM 53.6 °F - 30.2 °F 41% 30.08 in 10.0 mi NNW 6.9 mph - N/A   Clear
9:15 PM 53.6 °F - 28.4 °F 38% 30.09 in 10.0 mi Calm Calm - N/A   Clear
9:35 PM 51.8 °F - 26.6 °F 38% 30.10 in 10.0 mi SE 4.6 mph - N/A   Clear
9:55 PM 50.0 °F - 26.6 °F 40% 30.09 in 10.0 mi South 5.8 mph - N/A   Clear
10:15 PM 48.2 °F - 26.6 °F 43% 30.10 in 10.0 mi Calm Calm - N/A   Clear
10:35 PM 48.2 °F - 26.6 °F 43% 30.10 in 10.0 mi North 4.6 mph - N/A   Clear
10:55 PM 46.4 °F 44.3 °F 26.6 °F 46% 30.11 in 10.0 mi NNE 4.6 mph - N/A   Clear
11:15 PM 48.2 °F - 26.6 °F 43% 30.11 in 10.0 mi Calm Calm - N/A   Clear
11:35 PM 46.4 °F 45.2 °F 24.8 °F 43% 30.10 in 10.0 mi West 3.5 mph - N/A   Clear
11:55 PM 46.4 °F 41.5 °F 24.8 °F 43% 30.10 in 10.0 mi West 10.4 mph - N/A   Clear